Ft. Stewart, GA

11:54 PM EDT on June 25, 2017 (GMT -0400)
Wright Army Air Field

Weather History for KLHW - September, 2014

Change the Weather History Date:

Wednesday, September 10, 2014

  Actual Average Record
Temperature  
Mean Temperature 80 °F -  
Max Temperature 87 °F 88 °F 95 °F (1977)
Min Temperature 73 °F 69 °F 55 °F (1998)
Cooling Degree Days 14    
Growing Degree Days 30 (Base 50)    
Moisture  
Dew Point 72 °F    
Average Humidity 83    
Maximum Humidity 94    
Minimum Humidity 62    
Precipitation  
Precipitation 0.02 in - - ()
Sea Level Pressure  
Sea Level Pressure 30.05 in    
Wind  
Wind Speed 2 mph (East)    
Max Wind Speed 10 mph    
Max Gust Speed -    
Visibility 10 miles    
Events Rain    
Averages and records for this station are not official NWS values.
T = Trace of Precipitation, MM = Missing Value Source: NWS Daily Summary

Daily Weather History Graph

Daily Weather History Graph

Search for Another Location

Airport or City:

Trip Planner

Search our weather history database for the weather conditions in past years. The results will help you decide how hot, cold, wet, or windy it might be!

Date:

Astronomy

Sep. 10, 2014 Rise Set
Actual Time 7:07 AM EDT 7:38 PM EDT
Civil Twilight 6:42 AM EDT 8:03 PM EDT
Nautical Twilight 6:13 AM EDT 8:32 PM EDT
Astronomical Twilight 5:44 AM EDT 9:01 PM EDT
Moon 8:46 PM EDT (9/10) 8:44 AM EDT (9/10)
Length of Visible Light 13h 20m
Length of Day
12h 31m
Waning Gibbous, 96% of the Moon is Illuminated
Sep 10
Waning Gibbous
Sep 15
Last Quarter
Sep 24
New
Oct 1
First Quarter
Oct 8
Full

Hourly Weather History & Observations

Time (EDT) Temp. Heat Index Dew Point Humidity Pressure Visibility Wind Dir Wind Speed Gust Speed Precip Events Conditions
12:53 AM 73.4 °F - 71.6 °F 94% 30.05 in 9.0 mi Calm Calm - N/A   Mostly Cloudy
12:58 AM 73.4 °F - 71.6 °F 94% 30.04 in 8.0 mi Calm Calm - N/A   Mostly Cloudy
1:08 AM 73.4 °F - 71.6 °F 94% 30.04 in 10.0 mi North 2.3 mph - N/A   Overcast
1:43 AM 73.4 °F - 71.6 °F 94% 30.03 in 10.0 mi Calm Calm - N/A   Overcast
1:53 AM 75.2 °F - 71.6 °F 89% 30.03 in 10.0 mi Calm Calm - N/A   Overcast
1:58 AM 75.2 °F - 71.6 °F 89% 30.03 in 10.0 mi Calm Calm - N/A   Overcast
2:43 AM 73.4 °F - 71.6 °F 94% 30.03 in 10.0 mi Calm Calm - N/A   Overcast
2:53 AM 75.2 °F - 71.6 °F 89% 30.03 in 10.0 mi Calm Calm - N/A   Overcast
2:58 AM 74.5 °F - 72.3 °F 93% 30.04 in 10.0 mi Calm Calm - N/A   Overcast
3:18 AM 73.4 °F - 71.6 °F 94% 30.03 in 10.0 mi NNE 3.5 mph - N/A   Scattered Clouds
3:23 AM 73.4 °F - 71.6 °F 94% 30.03 in 10.0 mi NNE 2.3 mph - N/A   Mostly Cloudy
3:33 AM 73.4 °F - 71.6 °F 94% 30.03 in 10.0 mi NNE 3.5 mph - N/A   Scattered Clouds
3:43 AM 73.4 °F - 71.6 °F 94% 30.02 in 10.0 mi Calm Calm - N/A   Scattered Clouds
3:58 AM 73.6 °F - 71.8 °F 94% 30.03 in 9.0 mi NNE 3.5 mph - N/A   Scattered Clouds
4:23 AM 73.4 °F - 71.6 °F 94% 30.02 in 10.0 mi Calm Calm - N/A   Mostly Cloudy
4:58 AM 73.6 °F - 71.8 °F 94% 30.03 in 10.0 mi NNE 4.6 mph - N/A   Overcast
5:13 AM 73.4 °F - 71.6 °F 94% 30.03 in 10.0 mi NE 5.8 mph - N/A   Overcast
5:48 AM 73.4 °F - 71.6 °F 94% 30.03 in 10.0 mi NNE 2.3 mph - N/A   Overcast
5:58 AM 73.8 °F - 71.6 °F 93% 30.04 in 10.0 mi NNE 3.5 mph - N/A   Overcast
6:58 AM 73.2 °F - 71.1 °F 93% 30.06 in 10.0 mi Calm Calm - N/A   Mostly Cloudy
7:58 AM 73.0 °F - 71.1 °F 93% 30.07 in 10.0 mi Calm Calm - N/A   Partly Cloudy
8:58 AM 76.8 °F - 71.2 °F 83% 30.08 in 10.0 mi NE 2.3 mph - N/A   Clear
9:58 AM 81.0 °F 85.6 °F 72.7 °F 76% 30.09 in 10.0 mi ESE 2.3 mph - N/A   Partly Cloudy
10:43 AM 82.4 °F 87.2 °F 71.6 °F 70% 30.08 in 10.0 mi ESE 3.5 mph - N/A   Mostly Cloudy
10:58 AM 83.3 °F 88.7 °F 72.3 °F 69% 30.09 in 10.0 mi SE 8.1 mph - N/A   Mostly Cloudy
11:18 AM 84.2 °F 89.6 °F 71.6 °F 66% 30.08 in 10.0 mi East 3.5 mph - N/A   Mostly Cloudy
11:28 AM 84.2 °F 89.6 °F 71.6 °F 66% 30.08 in 10.0 mi East 4.6 mph - N/A   Mostly Cloudy
11:38 AM 86.0 °F 91.8 °F 71.6 °F 62% 30.08 in 10.0 mi NE 3.5 mph - N/A   Mostly Cloudy
11:58 AM 83.8 °F 88.9 °F 71.4 °F 66% 30.09 in 10.0 mi Calm Calm - N/A   Overcast
12:58 PM 83.7 °F 89.4 °F 72.3 °F 69% 30.08 in 10.0 mi NE 5.8 mph - N/A   Mostly Cloudy
1:10 PM 84.2 °F 90.9 °F 73.4 °F 70% 30.07 in 10.0 mi ENE 6.9 mph - N/A Rain Light Rain
1:23 PM 82.4 °F 88.2 °F 73.4 °F 74% 30.06 in 10.0 mi NE 4.6 mph - N/A   Scattered Clouds
1:58 PM 84.0 °F 90.2 °F 73.0 °F 69% 30.06 in 10.0 mi East 2.3 mph - 0.00 in   Mostly Cloudy
2:15 PM 86.0 °F 93.4 °F 73.4 °F 66% 30.04 in 10.0 mi ESE 9.2 mph - N/A   Mostly Cloudy
2:46 PM 80.6 °F 85.4 °F 73.4 °F 79% 30.04 in 9.0 mi SSE 10.4 mph - N/A Rain Light Rain
2:58 PM 78.6 °F - 74.3 °F 87% 30.05 in 6.0 mi SSE 9.2 mph - 0.02 in Rain Light Rain
3:10 PM 78.8 °F - 73.4 °F 83% 30.03 in 10.0 mi SE 6.9 mph - N/A   Overcast
3:58 PM 80.1 °F 84.1 °F 72.7 °F 78% 30.03 in 10.0 mi East 3.5 mph - 0.00 in   Overcast
4:58 PM 84.9 °F 92.1 °F 73.8 °F 69% 30.02 in 10.0 mi East 8.1 mph - N/A   Mostly Cloudy
5:58 PM 84.0 °F 89.9 °F 72.5 °F 68% 30.01 in 10.0 mi ESE 5.8 mph - N/A   Overcast
6:58 PM 82.0 °F 87.7 °F 73.6 °F 75% 30.01 in 10.0 mi ENE 3.5 mph - N/A   Overcast
7:58 PM 80.6 °F 85.2 °F 73.2 °F 78% 30.02 in 10.0 mi SE 4.6 mph - N/A   Mostly Cloudy
8:58 PM 78.6 °F - 73.0 °F 83% 30.03 in 10.0 mi ESE 3.5 mph - N/A   Scattered Clouds
9:58 PM 77.0 °F - 72.7 °F 86% 30.05 in 10.0 mi ESE 2.3 mph - N/A   Clear
10:58 PM 75.6 °F - 72.9 °F 91% 30.04 in 10.0 mi Calm Calm - N/A   Clear
11:58 PM 74.7 °F - 72.5 °F 93% 30.04 in 10.0 mi Calm Calm - N/A   Clear